Snowfall_Accumulation
0.0 0.0 0.0 0.0 0.0 0.0 0.0 0.0 0.0 0.0 0.0 0.0 0.0 0.0 0.0 0.0 0.0 0.0 0.0 0.0 0.0 0.0 0.0 0.0 0.0 0.0 0.0 0.0 0.0 0.0 0.0 0.0 0.0 0.0 0.0 0.0 0.0 0.0
0.0 0.0 0.0 0.0 0.0 0.0 0.0 0.0 0.0 0.0 0.0 0.0 0.0 0.0 0.0 0.0 0.0 0.0 0.0 0.0 0.0 0.0 0.0 0.0 0.0 0.0 0.0 0.0 0.0 0.0 0.0 0.0 0.0 0.0 0.0 0.0 0.0 0.0
0.0 0.0 0.0 0.0 0.0 0.0 0.0 0.0 0.0 0.0 0.0 0.1 0.0 0.0 0.0 0.0 0.0 0.0 0.0 0.0 0.0 0.0 0.0 0.0 0.0 0.0 0.0 0.0 0.0 0.0 0.0 0.0 0.0 0.0 0.0 0.0 0.0 0.0
0.0 0.0 0.0 0.0 0.0 0.0 0.0 0.0 0.0 0.0 0.0 0.1 0.0 0.3 0.4 0.1 0.2 0.0 0.0 0.0 0.0 0.0 0.0 0.0 0.0 0.0 0.0 0.0 0.0 0.0 0.0 0.0 0.0 0.0 0.0 0.0 0.0 0.0
0.0 0.0 0.0 0.0 0.0 0.0 0.1 0.0 0.4 0.3 0.2 0.1 0.3 0.8 1.3 0.9 2.0 1.6 1.1 0.0 0.0 0.0 0.0 0.0 0.0 0.0 0.0 0.0 0.0 0.0 0.0 0.0 0.0 0.0 0.0 0.0 0.0 0.0
0.0 0.0 0.0 0.3 0.4 0.0 0.9 1.0 0.7 1.0 0.5 0.7 0.3 1.0 0.8 0.5 0.3 0.4 0.4 0.2 0.0 0.0 0.0 0.0 0.0 0.0 0.0 0.0 0.0 0.0 0.0 0.0 0.0 0.0 0.0 0.0 0.0 0.0
0.0 0.2 0.1 0.0 0.8 1.9 1.5 1.0 1.1 0.8 0.9 1.0 0.9 0.3 0.3 0.3 0.3 0.2 0.1 0.0 0.0 0.0 0.0 0.0 0.0 0.0 0.0 0.0 0.0 0.0 0.0 0.0 0.0 0.0 0.0 0.0 0.0 0.0
0.0 1.3 1.2 1.7 0.6 0.0 0.0 0.0 0.0 0.8 1.1 0.9 0.4 0.1 0.1 0.1 0.0 0.0 0.2 0.9 3.0 0.2 0.3 0.5 0.0 0.1 0.0 0.0 0.0 0.0 0.0 0.0 0.0 0.0 0.0 0.0 0.0 0.0
1.7 1.5 0.4 0.5 0.4 0.5 0.1 0.0 0.2 0.0 0.0 0.1 0.1 0.0 0.0 0.0 0.4 0.5 1.3 2.1 2.0 3.1 1.8 10.1 1.1 1.4 0.0 0.0 0.0 0.0 0.0 0.0 0.0 0.0 0.0 0.0 0.0 0.0
1.1 0.7 0.3 0.0 0.0 0.1 0.1 0.4 0.0 0.0 0.0 0.0 0.0 0.0 0.1 0.1 0.3 0.5 1.1 3.4 3.6 2.8 0.8 9.1 6.4 3.9 0.5 0.2 0.0 0.0 0.0 0.0 0.0 0.0 0.0 0.0 0.0 0.0
0.3 0.0 0.0 0.0 0.0 0.0 0.2 0.9 0.7 0.6 0.0 0.0 0.0 0.0 0.0 0.0 0.0 0.4 2.4 5.4 7.4 5.1 3.7 4.5 5.8 7.2 6.8 2.0 0.0 0.0 0.0 0.0 0.0 0.0 0.0 0.0 0.0 0.0
0.1 0.0 0.0 0.0 0.0 0.0 0.4 0.6 1.2 1.5 0.9 1.4 0.9 0.2 0.1 0.0 0.0 0.1 0.9 8.4 8.2 7.9 2.3 8.2 5.2 6.0 12.0 6.2 3.8 0.4 0.2 0.0 0.0 0.0 0.0 0.0 0.0 0.0
0.0 0.0 0.0 0.0 0.0 0.0 0.2 0.5 1.9 0.8 2.1 3.3 2.8 2.7 2.5 2.3 0.4 0.6 1.0 4.6 13.2 10.4 1.5 10.5 12.7 5.2 10.2 5.9 3.9 3.7 2.1 0.2 0.0 0.0 0.0 0.0 0.1 0.1
0.1 0.0 0.0 0.1 0.0 0.0 0.4 0.0 0.1 0.6 1.3 1.3 1.4 1.6 2.3 2.6 2.4 3.1 3.3 3.6 3.7 5.1 2.8 3.8 20.8 9.2 15.0 13.0 4.6 4.4 4.4 2.7 1.4 1.4 1.0 0.1 0.0 0.0
0.0 0.0 0.0 0.0 0.1 0.0 0.1 0.1 0.2 0.6 1.3 1.9 1.8 1.9 1.9 1.7 2.2 2.1 2.6 3.5 3.4 3.2 3.8 3.8 6.9 8.8 14.4 17.1 10.2 5.7 6.7 5.7 3.6 2.9 2.7 2.5 2.3 1.5
0.0 0.0 0.2 0.1 0.5 0.2 0.2 0.3 0.3 0.4 1.4 1.6 2.4 1.7 1.5 2.0 3.4 3.5 4.6 4.4 6.6 5.8 5.6 6.0 5.9 8.4 17.0 9.5 10.8 10.7 5.5 7.5 4.9 3.8 3.7 2.8 2.1 2.2
0.3 0.3 0.4 1.6 2.3 2.0 1.8 1.8 0.6 1.8 1.9 1.7 3.4 4.0 2.9 3.1 3.3 3.5 4.3 7.0 11.5 8.6 9.9 9.1 8.9 9.0 8.1 9.2 14.9 5.9 5.7 5.7 4.3 5.0 4.8 4.1 2.2 2.8
2.1 1.7 2.2 2.1 2.7 2.9 2.8 3.2 3.5 3.2 3.1 5.0 5.8 5.5 7.1 7.3 7.1 9.1 9.2 10.5 11.8 7.8 10.0 11.3 13.3 16.8 14.0 11.6 4.2 9.6 9.0 6.6 6.5 4.6 4.0 7.6 4.3 1.6
2.2 2.1 2.3 2.9 3.1 3.3 3.9 4.4 5.7 4.5 4.6 7.5 9.4 10.0 12.1 11.8 12.8 12.0 8.4 9.2 10.1 7.3 9.0 11.0 15.2 21.2 27.2 13.1 6.4 4.0 10.7 10.1 7.4 7.3 5.2 5.1 5.5 2.5
1.8 2.4 2.4 2.7 3.8 5.1 5.1 7.2 7.3 7.8 8.6 8.9 10.1 10.9 13.8 16.3 14.4 12.0 9.1 11.9 11.8 8.5 8.7 10.0 11.1 15.4 29.4 21.3 18.6 6.1 5.0 9.4 11.4 9.2 6.0 3.4 3.0 0.6
2.6 4.0 3.5 3.0 4.7 5.3 7.1 9.2 9.6 10.6 10.6 12.7 11.3 11.3 11.2 16.6 14.6 9.0 10.1 6.7 10.4 11.0 12.9 6.5 4.3 5.2 13.1 20.4 25.0 10.3 9.6 5.6 4.8 11.4 9.1 12.3 6.3 3.7
3.3 4.3 4.0 4.6 6.1 8.0 9.6 11.1 11.9 9.9 10.0 9.0 8.3 9.0 10.3 13.3 16.4 12.8 10.5 13.9 9.1 7.2 7.8 5.6 7.3 10.1 12.7 17.9 14.7 8.0 8.6 7.4 6.3 2.8 1.9 6.8 19.2 22.3
5.9 6.7 6.5 7.8 8.3 10.4 11.1 11.7 10.7 8.7 7.6 9.2 9.0 8.5 10.8 15.9 10.0 11.1 11.5 10.2 10.2 13.0 8.8 10.3 8.9 8.0 10.1 11.2 12.4 11.6 9.2 8.2 6.9 6.1 5.6 1.7 1.4 0.8